シュワルツ彗星

C/2014 B1 ( Schwartz )

English version
Home page
Updated on March 25, 2017

---------------------------------------------------------------------

・ プロフィール

発見日 2014年1月28日
発見光度 19.9等
発見者 Michael Schwartz (Tenagra Observatory near Nogales, AZ, U.S.A.)

・ 写真集

・ 軌道要素

Epoch 2017 Sept. 4.0 TT = JDT 2458000.5
T 2017 Sept. 10.52643 TT                                MPCW
q   9.5566426            (2000.0)            P               Q
z  -0.0003949      Peri.  345.84118     -0.85028924     -0.50400878
 +/-0.0000018      Node   161.39571     +0.51719839     -0.85352833
e   1.0037736      Incl.   28.37227     +0.09753994     +0.13215348
From 209 observations 2014 Jan. 28-2016 Nov. 3, mean residual 0".4.

・ 光度変化

        m1 = -8.5 + 5 logΔ + 20.0 log r

---------------------------------------------------------------------

軌道要素はM.P.E.C. 2016-V116に掲載されたものです。
光度グラフはComet for Windowsで作成したものです。

---------------------------------------------------------------------

Copyright(C) Seiichi Yoshida (comet@aerith.net). All rights reserved.